Weather History for Cuzco, Peru

Change the Weather History Date:

Thursday, April 4, 2013

  Actual Average Record
Temperature  
Mean Temperature 55 °F -  
Max Temperature 62 °F 67 °F - ()
Min Temperature 48 °F 40 °F - ()
Degree Days  
Heating Degree Days 10    
Growing Degree Days 5 (Base 50)    
Moisture  
Dew Point 43 °F    
Average Humidity 68    
Maximum Humidity 87    
Minimum Humidity 39    
Precipitation  
Precipitation 0.00 in 0.05 in - ()
Sea Level Pressure  
Sea Level Pressure 30.50 in    
Wind  
Wind Speed 4 mph ()    
Max Wind Speed 16 mph    
Max Gust Speed -    
Visibility 6.3 miles    
Events Rain    
T = Trace of Precipitation, MM = Missing Value Source: Averaged Metar Reports

Daily Weather History Graph

Daily Weather History Graph

Search for Another Location

Airport:

Trip Planner

Search our weather history database for the weather conditions in past years. The results will help you decide how hot, cold, wet, or windy it might be!

Date:

Astronomy

Apr. 04, 2013 Rise Set
Actual Time 5:52 AM PET 5:48 PM PET
Civil Twilight 5:31 AM PET 6:09 PM PET
Nautical Twilight 5:06 AM PET 6:34 PM PET
Astronomical Twilight 4:42 AM PET 6:58 PM PET
Moon 12:39 AM PET (4/4) 1:34 PM PET (4/4)
Length of Visible Light 12h 37m
Length of Day
11h 55m
Waning Crescent, 33% of the Moon is Illuminated
Apr 4
Waning Crescent
Apr 10
New
Apr 18
First Quarter
Apr 25
Full
May 2
Last Quarter

Hourly Weather History & Observations

Time (PET) Temp. Dew Point Humidity Pressure Visibility Wind Dir Wind Speed Gust Speed Precip Events Conditions
12:00 AM 53.6 °F 39.2 °F 58% 30.51 in - North - - N/A   Mostly Cloudy
1:00 AM 51 °F 44 °F 69%  in 6 mi Calm Calm - - Rain Light Drizzle
1:00 AM 51.8 °F 44.6 °F 76% 30.51 in - North - - N/A Rain Light Rain
2:00 AM 50.0 °F 44.6 °F 82% 30.51 in - North - - N/A Rain Light Rain
3:00 AM 50.0 °F 42.8 °F 76% 30.48 in - North - - N/A   Light Drizzle
4:00 AM 49 °F 44 °F 77%  in 6 mi Calm Calm - - Rain Drizzle
4:00 AM 48.2 °F 44.6 °F 87% 30.48 in - North - - N/A   Light Drizzle
5:00 AM 48.2 °F 44.6 °F 87% 30.48 in - North - - N/A   Mostly Cloudy
5:30 AM 48.2 °F 44.6 °F 87% 30.48 in 6.2 mi Variable 2.3 mph - N/A   Mostly Cloudy
6:00 AM 48.2 °F 44.6 °F 87% 30.48 in 6.2 mi East 4.6 mph - N/A   Mostly Cloudy
6:25 AM 48.2 °F 44.6 °F 87% 30.51 in 6.2 mi ESE 3.5 mph - N/A   Overcast
7:00 AM 49 °F 44 °F 79%  in 5 mi East 3.5 mph - - Rain Light Rain
7:00 AM 50.0 °F 44.6 °F 82% 30.51 in 6.2 mi East 3.5 mph - N/A Rain Light Rain
7:17 AM 50.0 °F 44.6 °F 82% 30.54 in 5.0 mi Calm Calm - N/A Rain Rain
8:00 AM 48.2 °F 44.6 °F 87% 30.54 in 6.2 mi East 2.3 mph - N/A   Overcast
9:00 AM 51.8 °F 46.4 °F 82% 30.57 in 6.2 mi West 2.3 mph - N/A   Overcast
9:30 AM 55.4 °F 44.6 °F 67% 30.57 in 6.2 mi Calm Calm - N/A   Mostly Cloudy
10:00 AM 59 °F 42 °F 42%  in 9 mi Calm Calm - -   Partly Cloudy
10:00 AM 59.0 °F 42.8 °F 55% 30.57 in 6.2 mi Calm Calm - N/A   Mostly Cloudy
10:30 AM 57.2 °F 42.8 °F 59% 30.54 in 6.2 mi West 3.5 mph - N/A   Mostly Cloudy
11:00 AM 57.2 °F 44.6 °F 63% 30.54 in 6.2 mi WNW 8.1 mph - N/A   Mostly Cloudy
11:30 AM 60.8 °F 46.4 °F 59% 30.51 in 6.2 mi Calm Calm - N/A   Mostly Cloudy
12:00 PM 60.8 °F 44.6 °F 55% 30.51 in 6.2 mi WSW 8.1 mph - N/A   Mostly Cloudy
12:30 PM 60.8 °F 44.6 °F 55% 30.48 in 6.2 mi West 8.1 mph - N/A   Mostly Cloudy
1:00 PM 57 °F 41 °F 44%  in 6 mi West 16.1 mph - -   Overcast
1:00 PM 57.2 °F 41.0 °F 55% 30.48 in 6.2 mi West 16.1 mph - N/A   Mostly Cloudy
1:30 PM 55.4 °F 42.8 °F 63% 30.48 in 6.2 mi WNW 5.8 mph - N/A   Mostly Cloudy
2:00 PM 57.2 °F 42.8 °F 59% 30.48 in 6.2 mi NNW 6.9 mph - N/A   Mostly Cloudy
2:30 PM 59.0 °F 42.8 °F 55% 30.45 in 6.2 mi North 8.1 mph - N/A   Mostly Cloudy
3:00 PM 57.2 °F 42.8 °F 59% 30.45 in 6.2 mi WNW 6.9 mph - N/A   Mostly Cloudy
3:30 PM 59.0 °F 42.8 °F 55% 30.42 in 6.2 mi WNW 8.1 mph - N/A   Scattered Clouds
4:00 PM 60 °F 42 °F 39%  in 9 mi NNW 10.4 mph - -   Partly Cloudy
4:00 PM 59.0 °F 41.0 °F 51% 30.42 in 6.2 mi NNW 10.4 mph - N/A   Scattered Clouds
4:30 PM 57.2 °F 42.8 °F 59% 30.42 in 6.2 mi North 6.9 mph - N/A   Scattered Clouds
5:00 PM 57.2 °F 42.8 °F 59% 30.42 in 6.2 mi West 3.5 mph - N/A   Scattered Clouds
5:30 PM 55.4 °F 42.8 °F 63% 30.45 in 6.2 mi WNW 4.6 mph - N/A   Scattered Clouds
6:00 PM 53.6 °F 42.8 °F 67% 30.45 in 6.2 mi East 5.8 mph - N/A   Scattered Clouds
7:00 PM 54 °F 42 °F 53%  in 6 mi Calm Calm - -   Partly Cloudy
7:00 PM 53.6 °F 42.8 °F 67% 30.51 in - North - - N/A Rain Light Rain
8:00 PM 50.0 °F 42.8 °F 76% 30.54 in - North - - N/A Rain Light Rain
9:00 PM 50.0 °F 42.8 °F 76% 30.57 in - North - - N/A   Mostly Cloudy
10:00 PM 48 °F 44 °F 81%  in 6 mi Calm Calm - -   Partly Cloudy
10:00 PM 48.2 °F 44.6 °F 87% 30.57 in - North - - N/A   Mostly Cloudy
11:00 PM 50.0 °F 44.6 °F 82% 30.57 in - North - - N/A   Mostly Cloudy